Time,TemperatureF,DewpointF,PressureIn,WindDirection,WindDirectionDegrees,WindSpeedMPH,WindSpeedGustMPH,Humidity,HourlyPrecipIn,Conditions,Clouds,dailyrainin,SoftwareType,DateUTC
2013-09-02 00:00:00,68.0,-99.9,-100.00,NW,320,1.0,6.0,-999,0.00,,,0.08,,2013-09-02 05:00:00,
2013-09-02 00:44:00,68.0,-99.9,-100.00,NW,320,1.0,6.0,-999,0.00,,,0.08,,2013-09-02 05:44:00,
2013-09-02 00:52:00,68.0,-99.9,-100.00,NW,320,1.0,6.0,-999,0.00,,,0.08,,2013-09-02 05:52:00,
2013-09-02 01:00:00,66.0,-99.9,-100.00,NW,304,1.0,8.0,-999,0.00,,,0.08,,2013-09-02 06:00:00,
2013-09-02 01:43:00,66.0,-99.9,-100.00,NW,304,1.0,8.0,-999,0.00,,,0.08,,2013-09-02 06:43:00,
2013-09-02 01:52:00,66.0,-99.9,-100.00,NW,304,1.0,8.0,-999,0.00,,,0.08,,2013-09-02 06:52:00,
2013-09-02 02:00:00,64.0,-99.9,-100.00,WNW,284,1.0,7.0,-999,0.00,,,0.08,,2013-09-02 07:00:00,
2013-09-02 02:42:00,64.0,-99.9,-100.00,WNW,284,1.0,7.0,-999,0.00,,,0.08,,2013-09-02 07:42:00,
2013-09-02 02:53:00,64.0,-99.9,-100.00,WNW,284,1.0,7.0,-999,0.00,,,0.08,,2013-09-02 07:53:00,
2013-09-02 03:00:00,63.0,-99.9,-100.00,WNW,294,2.0,9.0,-999,0.00,,,0.08,,2013-09-02 08:00:00,
2013-09-02 03:43:00,63.0,-99.9,-100.00,WNW,294,2.0,9.0,-999,0.00,,,0.08,,2013-09-02 08:43:00,
2013-09-02 03:52:00,63.0,-99.9,-100.00,WNW,294,2.0,9.0,-999,0.00,,,0.08,,2013-09-02 08:52:00,
2013-09-02 04:00:00,62.0,-99.9,-100.00,WSW,240,1.0,5.0,-999,0.00,,,0.08,,2013-09-02 09:00:00,
2013-09-02 04:44:00,62.0,-99.9,-100.00,WSW,240,1.0,5.0,-999,0.00,,,0.08,,2013-09-02 09:44:00,
2013-09-02 04:54:00,62.0,-99.9,-100.00,WSW,240,1.0,5.0,-999,0.00,,,0.08,,2013-09-02 09:54:00,
2013-09-02 05:00:00,62.0,-99.9,-100.00,WNW,286,3.0,13.0,-999,0.00,,,0.08,,2013-09-02 10:00:00,
2013-09-02 05:43:00,62.0,-99.9,-100.00,WNW,286,3.0,13.0,-999,0.00,,,0.08,,2013-09-02 10:43:00,
2013-09-02 05:53:00,62.0,-99.9,-100.00,WNW,286,3.0,13.0,-999,0.00,,,0.08,,2013-09-02 10:53:00,
2013-09-02 06:00:00,60.0,-99.9,-100.00,NW,316,2.0,7.0,-999,0.00,,,0.05,,2013-09-02 11:00:00,
2013-09-02 06:52:00,60.0,-99.9,-100.00,NW,316,2.0,7.0,-999,0.00,,,0.05,,2013-09-02 11:52:00,
2013-09-02 07:00:00,59.0,-99.9,-100.00,WNW,289,3.0,9.0,-999,0.00,,,0.00,,2013-09-02 12:00:00,
2013-09-02 07:43:00,59.0,-99.9,-100.00,WNW,289,3.0,9.0,-999,0.00,,,0.00,,2013-09-02 12:43:00,
2013-09-02 07:52:00,59.0,-99.9,-100.00,WNW,289,3.0,9.0,-999,0.00,,,0.00,,2013-09-02 12:52:00,
2013-09-02 08:00:00,62.0,-99.9,-100.00,WNW,295,2.0,8.0,-999,0.00,,,0.00,,2013-09-02 13:00:00,
2013-09-02 08:42:00,62.0,-99.9,-100.00,WNW,295,2.0,8.0,-999,0.00,,,0.00,,2013-09-02 13:42:00,
2013-09-02 08:53:00,62.0,-99.9,-100.00,WNW,295,2.0,8.0,-999,0.00,,,0.00,,2013-09-02 13:53:00,
2013-09-02 10:00:00,68.0,-99.9,-100.00,NNW,329,2.0,6.0,-999,0.00,,,0.00,,2013-09-02 15:00:00,
2013-09-02 10:45:00,68.0,-99.9,-100.00,NNW,329,2.0,6.0,-999,0.00,,,0.00,,2013-09-02 15:45:00,
2013-09-02 10:55:00,68.0,-99.9,-100.00,NNW,329,2.0,6.0,-999,0.00,,,0.00,,2013-09-02 15:55:00,
2013-09-02 11:00:00,72.0,-99.9,-100.00,North,354,3.0,11.0,-999,0.00,,,0.00,,2013-09-02 16:00:00,
2013-09-02 11:43:00,72.0,-99.9,-100.00,North,354,3.0,11.0,-999,0.00,,,0.00,,2013-09-02 16:43:00,
2013-09-02 11:53:00,72.0,-99.9,-100.00,North,354,3.0,11.0,-999,0.00,,,0.00,,2013-09-02 16:53:00,
2013-09-02 12:00:00,74.0,-99.9,-100.00,NNE,15,2.0,8.0,-999,0.00,,,0.00,,2013-09-02 17:00:00,
2013-09-02 12:45:00,74.0,-99.9,-100.00,NNE,15,2.0,8.0,-999,0.00,,,0.00,,2013-09-02 17:45:00,
2013-09-02 12:52:00,74.0,-99.9,-100.00,NNE,15,2.0,8.0,-999,0.00,,,0.00,,2013-09-02 17:52:00,
2013-09-02 13:00:00,75.0,-99.9,-100.00,NNW,332,3.0,8.0,-999,0.00,,,0.00,,2013-09-02 18:00:00,
2013-09-02 13:42:00,75.0,-99.9,-100.00,NNW,332,3.0,8.0,-999,0.00,,,0.00,,2013-09-02 18:42:00,
2013-09-02 13:52:00,75.0,-99.9,-100.00,NNW,332,3.0,8.0,-999,0.00,,,0.00,,2013-09-02 18:52:00,
2013-09-02 14:00:00,77.0,-99.9,-100.00,NNW,340,3.0,9.0,-999,0.00,,,0.00,,2013-09-02 19:00:00,
2013-09-02 14:42:00,77.0,-99.9,-100.00,NNW,340,3.0,9.0,-999,0.00,,,0.00,,2013-09-02 19:42:00,
2013-09-02 14:52:00,77.0,-99.9,-100.00,NNW,340,3.0,9.0,-999,0.00,,,0.00,,2013-09-02 19:52:00,
2013-09-02 15:00:00,79.0,-99.9,-100.00,NNW,328,2.0,9.0,-999,0.00,,,0.00,,2013-09-02 20:00:00,
2013-09-02 15:42:00,79.0,-99.9,-100.00,NNW,328,2.0,9.0,-999,0.00,,,0.00,,2013-09-02 20:42:00,
2013-09-02 15:52:00,79.0,-99.9,-100.00,NNW,328,2.0,9.0,-999,0.00,,,0.00,,2013-09-02 20:52:00,
2013-09-02 16:00:00,80.0,-99.9,-100.00,NNW,337,2.0,8.0,-999,0.00,,,0.00,,2013-09-02 21:00:00,
2013-09-02 16:44:00,80.0,-99.9,-100.00,NNW,337,2.0,8.0,-999,0.00,,,0.00,,2013-09-02 21:44:00,
2013-09-02 16:55:00,80.0,-99.9,-100.00,NNW,337,2.0,8.0,-999,0.00,,,0.00,,2013-09-02 21:55:00,
2013-09-02 17:00:00,80.0,-99.9,-100.00,North,2,2.0,9.0,-999,0.00,,,0.00,,2013-09-02 22:00:00,
2013-09-02 17:44:00,80.0,-99.9,-100.00,North,2,2.0,9.0,-999,0.00,,,0.00,,2013-09-02 22:44:00,
2013-09-02 17:54:00,80.0,-99.9,-100.00,North,2,2.0,9.0,-999,0.00,,,0.00,,2013-09-02 22:54:00,
2013-09-02 18:00:00,79.0,-99.9,-100.00,WNW,295,2.0,7.0,-999,0.00,,,0.00,,2013-09-02 23:00:00,
2013-09-02 18:53:00,79.0,-99.9,-100.00,WNW,295,2.0,7.0,-999,0.00,,,0.00,,2013-09-02 23:53:00,
2013-09-02 19:00:00,74.0,-99.9,-100.00,NE,34,2.0,10.0,-999,0.00,,,0.00,,2013-09-03 00:00:00,
2013-09-02 19:42:00,74.0,-99.9,-100.00,NE,34,2.0,10.0,-999,0.00,,,0.00,,2013-09-03 00:42:00,
2013-09-02 19:52:00,74.0,-99.9,-100.00,NE,34,2.0,10.0,-999,0.00,,,0.00,,2013-09-03 00:52:00,
2013-09-02 20:00:00,71.0,-99.9,-100.00,North,6,1.0,6.0,-999,0.00,,,0.00,,2013-09-03 01:00:00,
2013-09-02 20:42:00,71.0,-99.9,-100.00,North,6,1.0,6.0,-999,0.00,,,0.00,,2013-09-03 01:42:00,
2013-09-02 20:52:00,71.0,-99.9,-100.00,North,6,1.0,6.0,-999,0.00,,,0.00,,2013-09-03 01:52:00,
2013-09-02 21:00:00,67.0,-99.9,-100.00,SW,216,3.0,5.0,-999,0.00,,,0.00,,2013-09-03 02:00:00,
2013-09-02 21:52:00,67.0,-99.9,-100.00,SW,216,3.0,5.0,-999,0.00,,,0.00,,2013-09-03 02:52:00,
2013-09-02 22:00:00,64.0,-99.9,-100.00,SW,218,2.0,5.0,-999,0.00,,,0.00,,2013-09-03 03:00:00,
2013-09-02 22:45:00,64.0,-99.9,-100.00,SW,218,2.0,5.0,-999,0.00,,,0.00,,2013-09-03 03:45:00,
2013-09-02 22:55:00,64.0,-99.9,-100.00,SW,218,2.0,5.0,-999,0.00,,,0.00,,2013-09-03 03:55:00,
2013-09-02 23:00:00,63.0,-99.9,-100.00,ESE,114,2.0,4.0,-999,0.00,,,0.00,,2013-09-03 04:00:00,
2013-09-02 23:44:00,63.0,-99.9,-100.00,ESE,114,2.0,4.0,-999,0.00,,,0.00,,2013-09-03 04:44:00,
2013-09-02 23:54:00,63.0,-99.9,-100.00,ESE,114,2.0,4.0,-999,0.00,,,0.00,,2013-09-03 04:54:00,